Nurnberg, Germany

4:38 AM CEST on October 17, 2017 (GMT +0200)
Nurnberg

Weather History for EDDN - September, 2013

Change the Weather History Date:

Wednesday, September 18, 2013

  Actual Average Record
Temperature  
Mean Temperature 52 °F -  
Max Temperature 58 °F 61 °F 82 °F (2003)
Min Temperature 47 °F 44 °F 33 °F (2008)
Degree Days  
Heating Degree Days 12    
Growing Degree Days 2 (Base 50)    
Moisture  
Dew Point 52 °F    
Average Humidity 96    
Maximum Humidity 100    
Minimum Humidity 80    
Precipitation  
Precipitation 0.67 in 0.06 in - ()
Sea Level Pressure  
Sea Level Pressure 29.52 in    
Wind  
Wind Speed 8 mph ()    
Max Wind Speed 18 mph    
Max Gust Speed -    
Visibility 6.6 miles    
Events Rain    
Averages and records for this station are not official NWS values.
T = Trace of Precipitation, MM = Missing Value Source: Averaged Metar Reports

Daily Weather History Graph

Daily Weather History Graph

Search for Another Location

Airport or City:

Trip Planner

Search our weather history database for the weather conditions in past years. The results will help you decide how hot, cold, wet, or windy it might be!

Date:

Astronomy

Sep. 18, 2013 Rise Set
Actual Time 6:56 AM CEST 7:22 PM CEST
Civil Twilight 6:24 AM CEST 7:54 PM CEST
Nautical Twilight 5:46 AM CEST 8:32 PM CEST
Astronomical Twilight 5:06 AM CEST 9:11 PM CEST
Moon 6:35 PM CEST (9/18) 5:36 AM CEST (9/18)
Length of Visible Light 13h 30m
Length of Day
12h 26m
Waxing Gibbous, 99% of the Moon is Illuminated
Sep 18
Waxing Gibbous
Sep 19
Full
Sep 27
Last Quarter
Oct 5
New
Oct 12
First Quarter

Hourly Weather History & Observations

Time (CEST) Temp. Dew Point Humidity Pressure Visibility Wind Dir Wind Speed Gust Speed Precip Events Conditions
12:00 AM 49 °F 45 °F 81% 29.68 in 16 mi South 6.7 mph - -   Overcast
12:20 AM 48.2 °F 44.6 °F 87% 29.65 in - SSE 5.8 mph - N/A   Clear
12:50 AM 48.2 °F 44.6 °F 87% 29.62 in 6.2 mi SSE 4.6 mph - N/A   Mostly Cloudy
1:00 AM 49 °F 45 °F 80% 29.64 in 16 mi SSE 6.7 mph - -   Overcast
1:20 AM 48.2 °F 44.6 °F 87% 29.59 in 6.2 mi SE 5.8 mph - N/A   Mostly Cloudy
1:50 AM 48.2 °F 46.4 °F 93% 29.59 in 6.2 mi ESE 5.8 mph - N/A Rain Light Rain
2:00 AM 49 °F 46 °F 84% 29.59 in 9 mi SE 6.7 mph - - Rain Light Rain
2:20 AM 48.2 °F 46.4 °F 93% 29.56 in 6.2 mi SE 10.4 mph - N/A Rain Light Rain
2:50 AM 48.2 °F 46.4 °F 93% 29.53 in 6.2 mi ESE 6.9 mph - N/A Rain Rain
3:00 AM 48 °F 46 °F 91% 29.54 in 9 mi SE 11.2 mph - - Rain Rain
3:20 AM 48.2 °F 48.2 °F 100% 29.50 in 5.6 mi SSE 11.5 mph - N/A Rain Rain
3:50 AM 48.2 °F 48.2 °F 100% 29.50 in 5.6 mi SE 12.7 mph - N/A Rain Rain
4:00 AM 48 °F 47 °F 97% 29.50 in 6 mi SE 13.4 mph - - Rain Rain
4:20 AM 48.2 °F 48.2 °F 100% 29.47 in 5.6 mi SSE 9.2 mph - N/A Rain Rain
4:50 AM 48.2 °F 48.2 °F 100% 29.44 in 5.6 mi SSE 11.5 mph - N/A Rain Rain
5:20 AM 48.2 °F 48.2 °F 100% 29.44 in 5.6 mi SSE 9.2 mph - N/A Rain Rain
5:50 AM 50.0 °F 50.0 °F 100% 29.44 in 5.6 mi South 9.2 mph - N/A Rain Rain
6:20 AM 50.0 °F 50.0 °F 100% 29.44 in 5.6 mi South 9.2 mph - N/A Rain Rain
6:50 AM 50.0 °F 50.0 °F 100% 29.44 in 6.2 mi South 3.5 mph - N/A Rain Light Rain
7:00 AM 51 °F 50 °F 97% 29.44 in 6 mi South 8.9 mph - - Rain Light Rain
7:20 AM 51.8 °F 51.8 °F 100% 29.44 in 5.6 mi SSW 5.8 mph - N/A Rain Rain
7:50 AM 53.6 °F 53.6 °F 100% 29.44 in 5.6 mi SW 6.9 mph - N/A Rain Rain
8:00 AM 53 °F 53 °F 100% 29.44 in 6 mi SW 8.9 mph - - Rain Rain
8:20 AM 53.6 °F 53.6 °F 100% 29.44 in 5.0 mi WSW 9.2 mph - N/A Rain Rain
8:50 AM 55.4 °F 55.4 °F 100% 29.44 in 5.0 mi WSW 10.4 mph - N/A Rain Rain
9:00 AM 55 °F 55 °F 98% 29.44 in 5 mi SW 8.9 mph - - Rain Rain
9:20 AM 55.4 °F 55.4 °F 100% 29.44 in 6.2 mi WSW 11.5 mph - N/A Rain Light Rain
9:50 AM 57.2 °F 55.4 °F 94% 29.44 in 6.2 mi WSW 9.2 mph - N/A Rain Light Rain
10:00 AM 56 °F 55 °F 95% 29.45 in 9 mi SW 8.9 mph - - Rain Light Rain
10:20 AM 55.4 °F 55.4 °F 100% 29.44 in 5.6 mi WSW 10.4 mph - N/A Rain Rain
10:50 AM 55.4 °F 55.4 °F 100% 29.47 in 5.0 mi WSW 10.4 mph - N/A Rain Rain
11:20 AM 57.2 °F 55.4 °F 94% 29.47 in 5.0 mi WSW 12.7 mph - N/A Rain Rain
11:50 AM 57.2 °F 57.2 °F 100% 29.47 in 5.6 mi WSW 13.8 mph - N/A Rain Rain
12:00 PM 57 °F 56 °F 94% 29.46 in 6 mi WSW 11.2 mph - - Rain Rain
12:20 PM 57.2 °F 55.4 °F 94% 29.47 in 6.2 mi WSW 15.0 mph - N/A Rain Light Rain
12:50 PM 57.2 °F 55.4 °F 94% 29.47 in 6.2 mi WSW 16.1 mph - N/A Rain Light Rain
1:00 PM 58 °F 55 °F 88% 29.46 in 7 mi WSW 15.7 mph - - Rain Light Rain
1:20 PM 57.2 °F 55.4 °F 94% 29.47 in 6.2 mi WSW 15.0 mph - N/A Rain Light Rain
1:50 PM 57.2 °F 55.4 °F 94% 29.47 in 6.2 mi WSW 16.1 mph - N/A Rain Light Rain
2:00 PM 58 °F 56 °F 91% 29.46 in 7 mi WSW 13.4 mph - - Rain Light Rain
2:20 PM 57.2 °F 55.4 °F 94% 29.47 in 5.0 mi West 18.4 mph - N/A Rain Rain
2:50 PM 57.2 °F 55.4 °F 94% 29.47 in 6.2 mi West 16.1 mph - N/A Rain Rain
3:00 PM 57 °F 56 °F 93% 29.47 in 7 mi WSW 15.7 mph - - Rain Rain
3:20 PM 57.2 °F 55.4 °F 94% 29.50 in 1.9 mi West 16.1 mph - N/A Rain Rain Showers
3:50 PM 53.6 °F 53.6 °F 100% 29.50 in - Variable 3.5 mph - N/A Rain Heavy Rain
4:00 PM 54 °F 54 °F 99% 29.51 in 2 mi WNW 6.7 mph - - Rain Heavy Rain
4:20 PM 55.4 °F 55.4 °F 100% 29.50 in 5.0 mi NW 8.1 mph - N/A Rain Rain
4:50 PM 53.6 °F 53.6 °F 100% 29.53 in 6.2 mi WNW 5.8 mph - N/A Rain Light Rain
5:20 PM 53.6 °F 53.6 °F 100% 29.53 in 6.2 mi West 8.1 mph - N/A Rain Light Rain
5:50 PM 53.6 °F 53.6 °F 100% 29.53 in 6.2 mi WNW 5.8 mph - N/A Rain Light Rain
6:00 PM 54 °F 53 °F 95% 29.55 in 9 mi WNW 6.7 mph - - Rain Light Rain
6:20 PM 53.6 °F 53.6 °F 100% 29.56 in 6.2 mi West 8.1 mph - N/A Rain Rain
6:50 PM 53.6 °F 53.6 °F 100% 29.56 in 6.2 mi West 6.9 mph - N/A Rain Rain
7:00 PM 53 °F 53 °F 99% 29.58 in 8 mi WNW 6.7 mph - - Rain Rain
7:20 PM 51.8 °F 51.8 °F 100% 29.56 in 6.2 mi WNW 4.6 mph - N/A Rain Light Rain
7:50 PM 51.8 °F 51.8 °F 100% 29.59 in 6.2 mi WNW 4.6 mph - N/A Rain Light Rain
8:00 PM 53 °F 52 °F 95% 29.59 in 9 mi West 6.7 mph - - Rain Light Rain
8:20 PM 51.8 °F 51.8 °F 100% 29.59 in 6.2 mi WNW 5.8 mph - N/A Rain Light Rain
8:50 PM 51.8 °F 51.8 °F 100% 29.62 in 6.2 mi West 6.9 mph - N/A Rain Light Rain
9:00 PM 52 °F 51 °F 96% 29.62 in 12 mi West 6.7 mph - - Rain Light Rain
9:20 PM 50.0 °F 50.0 °F 100% 29.62 in 6.2 mi NW 8.1 mph - N/A Rain Light Rain
9:50 PM 50.0 °F 50.0 °F 100% 29.65 in 6.2 mi WNW 2.3 mph - N/A   Mostly Cloudy
10:00 PM 50 °F 49 °F 95% 29.65 in 12 mi NW 4.5 mph - - Rain Light Rain Showers
10:20 PM 50.0 °F 50.0 °F 100% 29.65 in 6.2 mi WNW 2.3 mph - N/A   Mostly Cloudy
10:50 PM 50.0 °F 50.0 °F 100% 29.68 in 6.2 mi WNW 3.5 mph - N/A   Mostly Cloudy
11:20 PM 50.0 °F 50.0 °F 100% 29.68 in 6.2 mi NNW 2.3 mph - N/A   Mostly Cloudy
11:50 PM 50.0 °F 50.0 °F 100% 29.68 in 6.2 mi NW 2.3 mph - N/A   Mostly Cloudy